Location: LC-39B
(28.6273°N, 80.6211°W)
Time: 23:43:42
(UTC+00:00)

ISS - Visible Passes

Search period start: 02 September 2014 00:00
Search period end: 12 September 2014 00:00
Orbit: 413 x 419 km, 51.6° (Epoch: 02 September)

Date Brightness Start Highest point End Pass type
(mag) Time Alt. Az. Time Alt. Az. Time Alt. Az.
08 Sep -1.8 10:30:14 10° SSW 10:33:18 36° SE 10:36:23 10° ENE visible
09 Sep -0.7 09:42:27 10° S 09:44:45 18° SE 09:47:03 10° E visible
10 Sep -3.0 10:29:18 10° WSW 10:32:32 52° NW 10:35:48 10° NNE visible
11 Sep -3.2 09:43:09 50° SSW 09:43:50 70° SE 09:47:09 10° NE visible
